Regional Weather Roundup
Issued by NWS Mobile, AL

Home | Current Version | Previous Version | Text Only | Print | Product List | Glossary On
Versions: 1 2 3 4 5 6 7 8 9 10 11 12 13 14 15 16 17 18 19 20 21 22 23 24 25 26 27 28
000
ASUS44 KMOB 291412
RWRMOB
REGIONAL WEATHER ROUNDUP
NATIONAL WEATHER SERVICE MOBILE AL
900 AM CDT FRI JUL 29 2016

NOTE: "FAIR" INDICATES FEW OR NO CLOUDS BELOW 12,000 FEET WITH NO
      SIGNIFICANT WEATHER AND/OR OBSTRUCTIONS TO VISIBILITY.

  * THESE STATIONS ARE PART OF THE UNIVERSITY OF SOUTH ALABAMA
    MESONET AND ARE NOT UNDER NWS OR FAA QUALITY CONTROL.

ALZ061>064-291500-
COASTAL ALABAMA

CITY           SKY/WX    TMP DP  RH WIND       PRES   REMARKS
MOBILE REG APT MOSUNNY   85  76  74 VRB3      30.06S
BROOKLEY FIELD MOSUNNY   86  78  77 VRB5      30.06S HX  98
USA CAMPUS*    NOT AVBL
DOG RIVER*     NOT AVBL


CITY           SKY/WX    TMP DP  RH WIND       PRES   REMARKS
MOUNT VERNON*  NOT AVBL
SARALAND*      NOT AVBL
BAY MINETTE*   NOT AVBL
LOXLEY*        NOT AVBL
ROBERTSDALE*   NOT AVBL
FAIRHOPE*      NOT AVBL
ELBERTA*       NOT AVBL
FOLEY*         NOT AVBL
GRAND BAY*     NOT AVBL
DAUPHIN ISLND* NOT AVBL
BON SCOUR NWR* NOT AVBL
GULF SHORES    MOSUNNY   85  79  83 NW5       30.05S HX  97

$$

ALZ051>060-291500-
INTERIOR SOUTHWEST AND SOUTH CENTRAL ALABAMA

CITY           SKY/WX    TMP DP  RH WIND       PRES   REMARKS
GREENVILLE     SUNNY     85  70  60 VRB6      30.05S
EVERGREEN      SUNNY     84  75  74 W8        30.06S
CASTLEBERRY*   NOT AVBL
ATMORE*        NOT AVBL
DIXIE*         NOT AVBL
ANDALUSIA/OPP  SUNNY     88  75  65 W9        30.06S HX  97
ANDALUSIA*     NOT AVBL
FLORALA APT    MOSUNNY   85  76  74 CALM      30.07S
FLORALA*       NOT AVBL

$$

FLZ001>006-291500-
WESTERN FLORIDA PANHANDLE

CITY           SKY/WX    TMP DP  RH WIND       PRES   REMARKS
PENSACOLA      SUNNY     87  75  67 VRB5      30.05R HX  96
NAS PENSACOLA  MOSUNNY   88  76  67 N6        30.04S HX  99
MILTON         MOSUNNY   86  79  79 W8        30.06R HX  99
WHTNG S FIELD  MOSUNNY   88  80  77 VRB6      30.06R HX 104


CITY           SKY/WX    TMP DP  RH WIND       PRES   REMARKS
WALNUT HILL*   NOT AVBL
JAY*           NOT AVBL
DUKE FIELD     MOSUNNY   85  76  75 W6        30.05R
CRESTVIEW      SUNNY     85  75  72 W7        30.07R
VALPARAISO     MOSUNNY   86  75  69 VRB5      30.05S HX  96
DESTIN         MOSUNNY   89  77  67 W5        30.05S HX 101

$$

MSZ076-079-291500-
INTERIOR SOUTHEAST MISSISSIPPI

CITY           SKY/WX    TMP DP  RH WIND       PRES   REMARKS
LEAKESVILLE*   NOT AVBL
AGRICOLA*      NOT AVBL

$$

MARINE OBSERVATIONS

STATION/POSITION TIME  TEMP    WIND        PRES    WAVE
                       AIR SEA DIR/SP/G            HT/PER
                 (UTC) (F)     (DEG/KT/KT) (MB)    (FT/S)
PASCAGOULA       1300   82     360/  5/  6 1016.9R
PETIT BOIS ISLND 1300   85     220/  5/  6 1017.7R
GRAND BAY        1245   81      40/  3     1019.0R
KATRINA CUT      1300   85     240/  6     1018.0S
CEDAR POINT      1300   85     250/  7     1017.3R
E DAUPHIN ISLAND 1400   86     210/  5/  6 1017.3R
MIDDLE BAY LIGHT 1300   85     290/  8     1016.9S
USCG MOBILE BAY  1300   84 86  360/  1/  3 1018.0R
STATE DOCKS      1300   88 88              1017.2R
MEAHER PARK      1300   85        CALM     1017.3R
WEEKS BAY        1200   79                   N/A
FORT MORGAN      1300   86     250/  7/  7 1016.9R
12 S ORANGE BCH  1350   85 87  220/  6/  8 1017.6R   2/ 5
PENSACOLA BAY    1300   85 87  310/  2/  5 1017.5R
64 S DAUPHIN ISL 1300   85 87  180/  8/ 10 1017.0R
67 S FORT MORGAN 1330   84     200/  8     1017.6R

$$

SELECTED LOCATIONS ACROSS THE REGION

CITY           SKY/WX    TMP DP  RH WIND       PRES   REMARKS
NEW ORLEANS    MOSUNNY   87  77  72 CALM      30.04S HX  99
GULFPORT       CLOUDY    85  77  77 W6        30.04R HX  95
PASCAGOULA AP  PTSUNNY   86  80  82 W5        30.05R HX 101
PASCAGOULA*    NOT AVBL
HATTIESBURG    SUNNY     82  71  69 VRB3      30.05F
LAUREL         SUNNY    N/A N/A N/A S5        30.07R
MERIDIAN       SUNNY     82  71  69 SW8       30.05S
JACKSON        PTSUNNY   78  71  79 SW6       30.05R
MONTGOMERY     SUNNY     83  72  69 W5        30.05R
TROY           SUNNY     82  74  76 W7        30.07R
KINSTON*       NOT AVBL
GENEVA*        NOT AVBL
ASHFORD*       NOT AVBL
DOTHAN         SUNNY     85  75  72 W9        30.09S
PANAMA CITY    SUNNY     87  76  69 CALM      30.05S HX  97

$$





USA.gov is the U.S. government's official web portal to all federal, state and local government web resources and services.